Theta_e
303 303 304 305 305 305 305 304 304 304 304 305 305 306 306 307 306 306 307 308 308 309 310 310 310 309 308 307 306 305 303 302 301 300 299 299 298 298 298 298 298 298
302 302 302 302 303 303 304 304 304 304 304 304 304 305 305 304 304 305 306 306 307 307 308 309 309 309 308 306 306 305 304 302 301 301 300 299 298 298 298 298 298 298
300 300 301 302 303 303 303 303 303 303 303 304 303 303 304 303 304 303 305 305 306 307 307 307 307 308 308 307 305 303 302 302 301 301 299 298 298 298 298 298 297 296
299 300 301 301 302 302 302 302 301 301 302 302 303 303 303 303 303 303 304 302 305 306 306 306 306 306 306 305 304 303 302 302 302 301 299 298 298 297 297 297 296 295
298 298 299 299 300 300 300 300 301 301 301 302 302 301 301 301 301 301 302 302 303 304 304 304 304 305 305 305 303 302 302 301 301 300 298 297 297 296 296 296 295 295
296 297 298 298 299 299 299 299 300 300 301 300 301 301 301 300 300 300 300 301 302 302 302 302 302 303 304 304 303 302 301 300 300 299 298 297 297 296 296 296 295 294
296 295 296 297 297 297 298 298 299 299 299 300 298 298 298 298 298 299 300 300 300 300 300 301 301 301 302 302 302 301 301 301 299 298 297 296 296 295 295 295 295 294
294 294 294 294 295 296 296 296 296 297 297 295 296 298 296 297 297 298 298 298 299 299 300 299 300 301 301 301 301 300 299 299 299 297 296 296 295 295 295 296 295 294
291 291 291 291 292 293 293 294 294 294 293 294 295 296 294 295 297 296 297 297 297 297 298 298 299 299 300 300 300 299 298 297 298 296 296 296 295 295 296 296 295 294
290 289 289 290 291 292 291 292 292 292 291 291 293 293 293 293 293 294 294 294 294 295 295 296 296 296 297 297 299 298 298 298 297 296 296 296 296 296 296 295 294 294
289 289 289 289 290 290 290 290 290 290 290 290 291 291 292 292 292 292 293 293 294 295 295 295 295 295 296 296 296 296 297 297 297 297 297 296 296 296 294 296 295 294
288 288 288 289 289 289 289 289 289 289 289 289 290 291 291 291 291 291 292 292 293 293 294 294 294 294 294 295 295 295 295 296 296 297 296 296 296 296 296 295 295 295
287 288 288 288 288 288 288 288 289 289 288 289 289 289 290 290 290 291 291 291 292 292 293 293 293 293 294 294 294 295 295 294 294 295 296 296 296 296 296 296 295 295
287 287 287 288 288 287 288 288 288 288 288 289 288 289 289 290 290 290 291 290 291 291 292 292 292 293 293 293 294 294 294 294 294 294 294 295 295 295 296 296 296 296
287 287 287 287 287 287 287 287 288 288 288 288 288 288 289 289 289 289 290 290 290 290 291 291 291 292 293 293 293 293 294 293 294 294 294 294 294 295 295 295 295 296
286 287 287 287 287 287 287 287 287 287 287 287 287 288 288 288 288 289 289 289 290 290 290 291 291 292 290 291 292 293 294 294 294 294 294 294 293 294 294 295 295 295
286 286 286 286 286 287 287 287 287 287 287 286 287 287 287 288 288 288 288 289 289 289 290 290 291 291 290 293 293 294 293 293 293 293 294 293 293 293 293 294 294 295
285 285 285 286 286 286 286 286 286 286 286 286 287 287 287 287 287 287 288 288 288 288 289 289 290 290 292 293 293 294 293 293 293 293 293 293 293 293 293 293 293 293
285 284 285 285 285 285 285 285 285 285 286 286 286 286 286 286 287 287 287 288 288 288 288 289 289 290 292 292 293 293 293 293 293 293 292 292 292 293 293 292 292 292
284 283 284 284 284 284 284 284 283 284 285 285 285 285 286 286 286 286 287 287 288 288 288 289 289 289 291 292 292 292 293 293 292 292 292 292 292 292 292 292 292 292
283 283 283 283 283 282 282 282 283 283 283 284 284 285 285 285 286 286 286 286 287 287 287 287 288 289 290 291 292 292 293 292 292 291 291 291 291 291 291 291 292 292
282 282 282 282 282 281 280 282 282 282 282 284 283 284 284 284 284 284 284 285 286 286 286 286 287 289 290 290 291 292 292 291 290 290 290 290 290 290 291 291 291 291
282 282 281 281 281 280 280 280 281 281 282 281 282 283 283 283 283 284 285 285 285 285 285 286 286 287 289 290 290 291 291 289 288 288 288 288 289 289 290 290 290 290
281 281 280 280 279 279 280 280 280 280 280 281 281 282 282 283 283 284 284 284 284 284 285 285 286 286 288 289 290 290 290 288 288 287 287 287 288 289 289 290 289 287
281 280 279 279 279 279 279 279 280 281 281 280 281 280 281 282 283 283 283 283 282 283 283 284 285 285 287 288 289 290 289 287 287 287 286 286 287 287 288 289 289 288
278 277 277 277 278 278 278 278 279 279 279 279 280 280 281 281 282 282 281 283 283 282 283 283 284 284 285 287 288 289 289 288 287 287 286 286 286 286 286 287 288 288
Wind_Speed
5 4 5 6 7 7 7 7 6 6 6 6 7 7 7 7 6 7 7 6 7 7 7 6 6 6 7 9 10 10 10 11 11 11 12 12 13 14 14 15 14 13
6 5 5 5 6 6 7 6 6 6 6 7 7 6 6 6 7 7 7 7 7 7 7 7 7 7 8 7 7 9 9 10 12 8 10 13 13 14 16 16 16 14
5 5 5 7 7 8 8 6 6 6 6 7 6 6 6 6 6 7 7 7 7 7 7 8 8 7 7 8 8 8 9 10 11 9 10 12 12 13 14 14 13 14
5 6 6 6 6 7 6 6 7 6 6 6 8 7 6 6 6 7 7 8 7 7 7 7 8 7 7 7 8 8 9 10 10 10 11 10 10 11 11 10 11 10
5 5 5 5 5 5 6 7 8 7 7 7 6 5 5 6 6 6 7 7 8 8 7 7 7 7 7 7 7 7 8 8 8 9 9 10 10 10 10 10 12 13
4 4 5 5 4 5 6 8 9 8 8 7 7 4 6 6 6 7 7 8 8 8 7 7 7 7 7 7 7 8 7 7 7 9 10 11 10 10 9 10 12 13
4 4 5 4 4 5 7 8 8 8 7 6 3 6 5 6 6 7 8 8 8 7 7 7 7 7 7 7 7 8 7 8 8 9 10 10 9 10 10 10 11 12
4 4 4 3 4 6 7 8 8 7 7 4 6 6 5 6 7 7 7 8 8 8 8 8 7 8 7 7 8 8 8 7 8 8 9 10 9 11 10 9 10 12
2 3 3 4 5 6 7 8 7 7 5 5 6 6 4 5 7 6 7 7 7 7 7 7 8 8 7 8 8 8 9 8 8 8 9 10 10 11 11 11 11 12
4 3 3 4 5 6 8 8 6 5 4 4 5 4 5 5 5 6 6 7 7 7 7 8 8 8 8 8 9 8 9 9 8 8 9 9 10 11 10 10 12 12
6 5 4 5 6 7 8 7 5 4 3 5 4 5 5 5 5 5 6 6 7 8 8 8 8 9 9 9 8 8 9 9 8 8 9 10 10 10 10 11 11 12
4 4 4 6 7 7 6 4 4 3 4 4 4 5 5 5 5 5 5 7 7 8 8 8 8 8 9 9 9 8 8 9 9 10 9 10 9 9 10 10 11 12
2 3 4 5 6 5 4 4 4 4 4 4 3 4 5 5 5 5 5 6 7 7 7 8 8 8 8 8 8 9 9 9 10 10 10 10 10 10 10 10 11 11
2 3 4 4 4 4 4 4 4 4 4 4 3 4 5 5 5 5 6 5 6 7 7 7 8 8 8 8 8 9 9 10 10 10 10 11 11 11 11 11 12 12
1 1 2 3 4 4 4 4 4 4 4 4 4 4 4 5 5 5 6 6 6 6 7 7 7 8 7 7 8 9 9 10 10 11 11 11 11 11 10 11 11 11
3 4 5 4 5 5 5 4 4 4 4 4 4 4 4 4 4 4 5 6 6 6 6 6 7 7 8 12 11 10 9 9 9 10 10 10 11 11 11 11 12 11
5 6 5 7 6 6 6 6 6 5 5 4 4 4 4 4 4 5 5 5 5 6 7 7 7 7 10 12 13 15 12 10 10 11 10 11 11 12 12 12 12 12
6 6 7 6 6 7 7 6 6 6 6 5 5 5 5 4 4 5 5 5 4 5 6 7 8 9 12 12 14 14 13 10 9 9 10 10 11 12 12 12 12 12
7 7 7 7 7 6 6 6 6 7 7 7 8 6 6 6 6 6 6 5 5 6 7 7 8 10 12 14 14 15 15 13 9 10 10 11 11 12 12 12 12 12
6 6 7 6 6 6 6 6 5 5 5 5 5 6 6 6 5 7 6 6 6 6 7 8 9 10 13 14 15 16 16 14 10 11 11 12 12 12 12 13 12 12
6 6 6 5 6 4 4 4 5 5 4 4 4 4 5 5 5 5 6 5 7 6 6 8 8 11 11 14 15 16 16 14 10 10 10 11 11 11 12 12 12 12
4 4 5 5 5 4 3 4 3 4 4 4 3 4 3 3 4 4 6 6 5 6 6 8 8 9 12 13 15 14 16 10 9 10 10 11 11 11 11 11 11 12
4 4 4 4 3 4 3 3 4 4 3 2 4 4 4 3 3 4 4 5 6 5 6 7 7 8 10 12 13 15 12 7 7 8 9 11 12 11 10 11 10 11
4 4 3 3 3 4 4 4 3 3 3 3 3 5 5 4 4 4 4 4 5 6 6 7 7 8 10 11 13 14 12 8 7 8 10 10 12 12 11 11 11 14
3 3 3 3 4 4 4 5 5 4 4 3 4 3 4 4 4 4 5 4 4 6 7 8 8 7 9 11 12 13 11 7 7 8 10 10 10 12 11 9 9 10
2 3 3 3 5 5 4 4 4 4 4 4 3 3 4 3 3 4 6 6 5 5 6 5 8 8 5 11 12 13 13 8 6 8 9 11 10 10 12 10 9 9
Wind_Direction
196 192 234 244 248 241 244 233 223 217 213 207 210 214 213 220 212 208 217 218 221 224 219 210 206 225 231 219 212 213 213 215 218 214 214 213 220 219 223 224 224 225
212 199 206 231 255 252 250 242 241 224 225 215 218 221 219 211 213 200 207 216 220 225 229 226 215 215 224 225 221 217 217 216 222 215 218 217 222 220 226 226 227 227
222 216 214 229 242 257 257 256 247 240 229 228 226 220 225 207 215 203 209 209 214 222 224 225 229 224 222 220 218 220 222 219 223 216 219 222 223 225 227 227 230 226
230 224 228 235 241 259 265 261 251 243 241 237 232 226 217 220 207 212 217 215 218 219 218 221 227 227 224 224 221 222 221 222 221 216 220 224 226 228 231 232 234 234
226 233 236 241 239 246 259 251 250 244 237 239 246 228 222 219 215 224 225 226 224 229 224 224 224 226 222 225 220 227 226 228 224 220 221 225 225 222 227 224 229 232
234 231 239 242 244 253 255 251 253 250 247 246 240 233 232 227 227 229 231 232 231 230 231 228 226 225 223 224 223 226 225 227 225 221 226 228 229 222 226 226 230 233
246 246 257 246 258 245 249 251 253 248 247 246 256 239 227 230 228 235 236 238 240 235 231 234 230 233 226 226 229 232 229 228 225 221 227 233 229 232 228 229 232 235
244 246 248 255 250 250 246 251 251 247 246 254 237 248 213 232 233 236 237 242 242 242 241 237 239 240 232 225 232 236 237 231 231 226 231 235 229 236 231 232 233 237
290 275 277 265 255 253 252 252 252 254 249 243 249 257 240 230 245 239 242 243 245 244 243 239 238 236 235 230 234 233 236 235 231 230 233 235 234 236 235 232 235 234
337 322 328 290 270 262 258 256 255 262 264 248 261 271 260 254 241 249 246 245 247 250 244 243 243 240 239 235 237 235 239 240 235 233 235 238 240 242 238 235 236 239
333 335 321 291 271 266 257 260 261 267 266 257 268 268 257 256 259 240 254 251 249 251 252 246 245 245 246 247 243 241 243 247 247 245 243 243 243 244 242 240 240 239
307 303 273 258 254 251 253 263 278 274 272 266 242 261 265 256 253 252 237 250 249 251 252 254 251 247 246 249 250 247 245 247 250 249 249 249 248 247 245 241 243 245
275 269 262 256 253 270 296 315 315 305 297 292 279 257 275 278 269 263 256 246 258 258 256 255 258 256 255 254 255 254 250 250 251 250 250 250 248 248 246 243 243 244
272 268 261 268 292 320 328 324 319 319 313 302 296 290 276 276 280 276 276 259 262 260 262 262 264 265 261 258 257 256 255 255 254 255 256 254 251 247 244 245 244 245
238 260 294 353 356 356 352 333 321 307 307 306 304 291 278 273 274 270 277 274 261 255 262 260 259 261 260 259 260 260 255 259 259 260 260 262 262 258 254 252 252 250
33 27 27 27 28 22 11 359 351 343 328 327 313 292 291 285 282 273 262 269 279 274 262 259 257 256 253 253 252 257 262 263 264 262 261 262 264 266 264 259 259 258
40 28 21 30 16 14 9 9 3 352 347 338 322 305 298 299 286 285 275 264 266 277 279 269 263 259 258 259 260 258 258 260 261 265 263 265 265 266 269 268 265 262
31 24 27 20 15 11 5 359 354 352 354 350 341 340 331 315 305 287 284 274 264 266 270 273 274 270 268 269 267 266 262 261 262 263 264 262 263 265 267 268 269 269
22 23 17 12 7 357 352 355 358 355 353 352 346 333 331 335 321 318 306 298 282 283 285 280 279 280 284 284 285 284 283 280 275 269 267 265 262 262 263 263 264 266
19 16 10 357 348 346 348 347 352 342 329 319 314 324 326 315 312 307 302 298 291 282 279 283 280 282 281 281 280 279 277 275 271 270 268 267 265 264 264 265 263 267
14 3 351 341 333 335 333 330 330 317 318 312 310 306 307 304 303 302 294 288 282 271 267 271 270 271 270 273 275 275 276 276 273 270 270 269 267 263 263 264 265 265
7 340 337 329 327 330 328 325 327 316 309 309 302 292 279 275 278 265 275 280 274 272 265 268 270 264 268 271 274 275 280 280 277 274 274 273 271 268 265 266 266 264
347 337 322 323 319 324 329 324 324 317 299 278 292 291 295 289 278 277 276 279 279 275 271 270 276 269 265 271 274 277 281 278 278 276 274 273 274 272 270 267 262 261
329 326 317 322 327 329 324 312 297 279 282 298 300 310 313 306 301 291 276 268 274 273 265 280 280 273 271 272 276 277 278 279 279 281 279 278 281 278 276 274 264 256
312 317 322 330 330 319 314 313 314 314 302 298 292 281 286 292 293 298 301 288 271 276 275 275 282 277 268 269 273 277 280 276 276 281 284 281 284 286 284 275 273 269
329 343 329 320 310 304 304 296 294 307 313 312 305 288 302 306 301 309 316 313 309 299 299 284 292 291 265 267 268 266 270 277 276 282 285 288 288 289 293 292 280 272